| time (UTC) | temp F | wind direction | speed MPH | gust MPH | rain 1hr in | rain 24hr in | rain mn in | humidity % | barometer mb |
| 20260507223521 | 65 | 226 | 1.0 | 4.0 | 0.00 | 0.00 | 0.00 | 37 | 1014.3 |
| 20260507222521 | 65 | 233 | 0.0 | 3.0 | 0.00 | 0.00 | 0.00 | 38 | 1014.3 |
| 20260507221541 | 66 | 234 | 0.0 | 2.0 | 0.00 | 0.00 | 0.00 | 37 | 1014.5 |
| 20260507220521 | 65 | 233 | 1.0 | 4.0 | 0.00 | 0.00 | 0.00 | 36 | 1014.6 |
| 20260507215521 | 66 | 237 | 0.0 | 5.0 | 0.00 | 0.00 | 0.00 | 38 | 1014.6 |
| 20260507214516 | 65 | 199 | 0.0 | 4.0 | 0.00 | 0.00 | 0.00 | 37 | 1014.6 |
| 20260507213516 | 66 | 211 | 1.0 | 4.0 | 0.00 | 0.00 | 0.00 | 41 | 1014.7 |
| 20260507212521 | 66 | 250 | 1.0 | 9.0 | 0.00 | 0.00 | 0.00 | 35 | 1014.8 |
| 20260507211521 | 65 | 273 | 1.0 | 4.0 | 0.00 | 0.00 | 0.00 | 35 | 1014.9 |
| 20260507210521 | 66 | 259 | 2.0 | 7.0 | 0.00 | 0.00 | 0.00 | 40 | 1015.0 |
| 20260507205521 | 65 | 270 | 2.0 | 6.0 | 0.00 | 0.00 | 0.00 | 42 | 1014.9 |
| 20260507204521 | 65 | 269 | 2.0 | 10.0 | 0.00 | 0.00 | 0.00 | 39 | 1014.9 |
| 20260507203516 | 66 | 272 | 3.0 | 8.0 | 0.00 | 0.00 | 0.00 | 41 | 1015.0 |
| 20260507202521 | 65 | 270 | 2.0 | 7.0 | 0.00 | 0.00 | 0.00 | 39 | 1015.1 |
| 20260507201542 | 64 | 249 | 0.0 | 5.0 | 0.00 | 0.00 | 0.00 | 37 | 1015.3 |
| 20260507200521 | 65 | 223 | 1.0 | 4.0 | 0.00 | 0.00 | 0.00 | 39 | 1015.4 |
| 20260507195521 | 65 | 229 | 1.0 | 5.0 | 0.00 | 0.00 | 0.00 | 35 | 1015.7 |
| 20260507194521 | 66 | 273 | 2.0 | 6.0 | 0.00 | 0.00 | 0.00 | 43 | 1015.8 |
| 20260507193516 | 65 | 282 | 1.0 | 3.0 | 0.00 | 0.00 | 0.00 | 37 | 1015.8 |
| 20260507192516 | 65 | 287 | 0.0 | 6.0 | 0.00 | 0.00 | 0.00 | 36 | 1015.9 |
| 20260507191521 | 65 | 264 | 2.0 | 4.0 | 0.00 | 0.00 | 0.00 | 46 | 1016.0 |
| 20260507190521 | 63 | 265 | 0.0 | 4.0 | 0.00 | 0.00 | 0.00 | 41 | 1016.0 |
| 20260507185521 | 63 | 262 | 2.0 | 8.0 | 0.00 | 0.00 | 0.00 | 37 | 1016.1 |
| 20260507184521 | 64 | 245 | 2.0 | 6.0 | 0.00 | 0.00 | 0.00 | 43 | 1016.3 |
| 20260507183521 | 63 | 211 | 1.0 | 5.0 | 0.00 | 0.00 | 0.00 | 41 | 1016.3 |
| 20260507182536 | 63 | 307 | 0.0 | 4.0 | 0.00 | 0.00 | 0.00 | 40 | 1016.2 |
| 20260507181521 | 62 | 277 | 2.0 | 10.0 | 0.00 | 0.00 | 0.00 | 38 | 1016.4 |
| 20260507180521 | 63 | 260 | 2.0 | 8.0 | 0.00 | 0.00 | 0.00 | 40 | 1016.5 |
| 20260507175541 | 63 | 266 | 1.0 | 6.0 | 0.00 | 0.00 | 0.00 | 44 | 1016.6 |
| 20260507174521 | 62 | 261 | 1.0 | 4.0 | 0.00 | 0.00 | 0.00 | 40 | 1016.8 |
| 20260507173521 | 61 | 267 | 0.0 | 5.0 | 0.00 | 0.00 | 0.00 | 39 | 1016.9 |
| 20260507172522 | 62 | 273 | 3.0 | 7.0 | 0.00 | 0.00 | 0.00 | 42 | 1017.1 |
| 20260507171517 | 61 | 280 | 2.0 | 7.0 | 0.00 | 0.00 | 0.00 | 41 | 1017.1 |
| 20260507170541 | 61 | 267 | 1.0 | 8.0 | 0.00 | 0.00 | 0.00 | 49 | 1017.3 |
| 20260507165541 | 61 | 259 | 2.0 | 6.0 | 0.00 | 0.00 | 0.00 | 39 | 1017.3 |
| 20260507164521 | 62 | 270 | 1.0 | 5.0 | 0.00 | 0.00 | 0.00 | 48 | 1017.4 |
| 20260507163521 | 61 | 269 | 1.0 | 6.0 | 0.00 | 0.00 | 0.00 | 46 | 1017.5 |
| 20260507162521 | 60 | 259 | 1.0 | 6.0 | 0.00 | 0.00 | 0.00 | 37 | 1017.6 |
| 20260507161516 | 60 | 280 | 1.0 | 5.0 | 0.00 | 0.00 | 0.00 | 44 | 1017.6 |
| 20260507160539 | 60 | 273 | 1.0 | 5.0 | 0.00 | 0.00 | 0.00 | 42 | 1017.5 |
| 20260507155521 | 59 | 266 | 1.0 | 5.0 | 0.00 | 0.00 | 0.00 | 40 | 1017.6 |
| 20260507154521 | 59 | 243 | 1.0 | 5.0 | 0.00 | 0.00 | 0.00 | 43 | 1017.7 |
| 20260507153541 | 59 | 112 | 0.0 | 4.0 | 0.00 | 0.00 | 0.00 | 44 | 1017.8 |
| 20260507152519 | 59 | 164 | 1.0 | 3.0 | 0.00 | 0.00 | 0.00 | 47 | 1017.9 |
| 20260507151541 | 57 | 132 | 1.0 | 4.0 | 0.00 | 0.00 | 0.00 | 44 | 1017.9 |
| 20260507150515 | 57 | 127 | 0.0 | 2.0 | 0.00 | 0.00 | 0.00 | 44 | 1017.9 |
| 20260507145521 | 56 | 108 | 1.0 | 3.0 | 0.00 | 0.00 | 0.00 | 50 | 1017.9 |
| 20260507144521 | 55 | 76 | 0.0 | 3.0 | 0.00 | 0.00 | 0.00 | 60 | 1017.9 |
| 20260507143521 | 55 | 63 | 0.0 | 3.0 | 0.00 | 0.00 | 0.00 | 61 | 1018.0 |
| 20260507142520 | 54 | 61 | 0.0 | 3.0 | 0.00 | 0.00 | 0.00 | 62 | 1018.1 |
| 20260507141521 | 53 | 54 | 0.0 | 3.0 | 0.00 | 0.00 | 0.00 | 63 | 1018.0 |
| 20260507140516 | 53 | 53 | 0.0 | 1.0 | 0.00 | 0.00 | 0.00 | 65 | 1017.9 |
| 20260507135515 | 52 | 53 | 0.0 | 2.0 | 0.00 | 0.00 | 0.00 | 67 | 1017.8 |
| 20260507134521 | 51 | 44 | 0.0 | 2.0 | 0.00 | 0.00 | 0.00 | 70 | 1017.9 |
| 20260507133521 | 51 | 44 | 0.0 | 2.0 | 0.00 | 0.00 | 0.00 | 71 | 1017.9 |
| 20260507132521 | 50 | 44 | 0.0 | 1.0 | 0.00 | 0.00 | 0.00 | 74 | 1017.9 |
| 20260507131521 | 49 | 0.0 | 2.0 | 0.00 | 0.00 | 0.00 | 78 | 1017.9 | |
| 20260507130521 | 48 | 0.0 | 0.0 | 0.00 | 0.00 | 0.00 | 84 | 1018.0 | |
| 20260507125536 | 47 | 0.0 | 0.0 | 0.00 | 0.00 | 0.00 | 88 | 1017.8 | |
| 20260507124516 | 46 | 44 | 0.0 | 2.0 | 0.00 | 0.00 | 0.00 | 92 | 1017.6 |
| 20260507123521 | 45 | 0.0 | 0.0 | 0.00 | 0.00 | 0.00 | 92 | 1017.6 | |
| 20260507122521 | 44 | 0.0 | 0.0 | 0.00 | 0.00 | 0.00 | 92 | 1017.6 | |
| 20260507121521 | 43 | 0.0 | 0.0 | 0.00 | 0.00 | 0.00 | 92 | 1017.5 | |
| 20260507120521 | 42 | 0.0 | 0.0 | 0.00 | 0.00 | 0.00 | 92 | 1017.5 | |
| 20260507115541 | 42 | 0.0 | 0.0 | 0.00 | 0.00 | 0.00 | 92 | 1017.5 | |
| 20260507114515 | 41 | 0.0 | 0.0 | 0.00 | 0.00 | 0.00 | 92 | 1017.4 | |
| 20260507113521 | 41 | 0.0 | 0.0 | 0.00 | 0.00 | 0.00 | 92 | 1017.3 | |
| 20260507112521 | 41 | 0.0 | 0.0 | 0.00 | 0.00 | 0.00 | 92 | 1017.2 | |
| 20260507111521 | 41 | 0.0 | 0.0 | 0.00 | 0.00 | 0.00 | 92 | 1017.1 | |
| 20260507110522 | 41 | 0.0 | 0.0 | 0.00 | 0.00 | 0.00 | 91 | 1017.0 | |
| 20260507105541 | 41 | 0.0 | 0.0 | 0.00 | 0.00 | 0.00 | 91 | 1016.9 | |
| 20260507104521 | 41 | 0.0 | 0.0 | 0.00 | 0.00 | 0.00 | 91 | 1016.9 | |
| 20260507103516 | 41 | 0.0 | 0.0 | 0.00 | 0.00 | 0.00 | 91 | 1016.9 | |
| 20260507102521 | 41 | 0.0 | 0.0 | 0.00 | 0.00 | 0.00 | 91 | 1017.0 | |
| 20260507101521 | 41 | 0.0 | 0.0 | 0.00 | 0.00 | 0.00 | 90 | 1017.1 | |
| 20260507100521 | 42 | 0.0 | 0.0 | 0.00 | 0.00 | 0.00 | 91 | 1017.1 | |
| 20260507095521 | 42 | 0.0 | 0.0 | 0.00 | 0.00 | 0.00 | 90 | 1017.1 | |
| 20260507094521 | 42 | 0.0 | 0.0 | 0.00 | 0.00 | 0.00 | 89 | 1017.3 | |
| 20260507093521 | 43 | 0.0 | 0.0 | 0.00 | 0.00 | 0.00 | 88 | 1017.2 | |
| 20260507092535 | 43 | 0.0 | 0.0 | 0.00 | 0.00 | 0.00 | 88 | 1017.2 | |
| 20260507091521 | 44 | 0.0 | 0.0 | 0.00 | 0.00 | 0.00 | 88 | 1017.2 | |
| 20260507090520 | 44 | 0.0 | 0.0 | 0.00 | 0.00 | 0.00 | 88 | 1017.3 | |
| 20260507085541 | 44 | 0.0 | 0.0 | 0.00 | 0.00 | 0.00 | 89 | 1017.2 | |
| 20260507084521 | 44 | 0.0 | 0.0 | 0.00 | 0.00 | 0.00 | 89 | 1017.0 | |
| 20260507083521 | 44 | 0.0 | 0.0 | 0.00 | 0.00 | 0.00 | 88 | 1016.8 | |
| 20260507082536 | 44 | 0.0 | 0.0 | 0.00 | 0.00 | 0.00 | 88 | 1016.6 | |
| 20260507081515 | 45 | 0.0 | 0.0 | 0.00 | 0.00 | 0.00 | 88 | 1016.7 | |
| 20260507080521 | 45 | 0.0 | 0.0 | 0.00 | 0.00 | 0.00 | 88 | 1016.7 | |
| 20260507075520 | 45 | 0.0 | 0.0 | 0.00 | 0.00 | 0.00 | 88 | 1016.6 | |
| 20260507074520 | 45 | 0.0 | 0.0 | 0.00 | 0.00 | 0.00 | 89 | 1016.5 | |
| 20260507073520 | 44 | 0.0 | 0.0 | 0.00 | 0.00 | 0.00 | 91 | 1016.5 | |
| 20260507072521 | 44 | 0.0 | 0.0 | 0.00 | 0.00 | 0.00 | 90 | 1016.5 | |
| 20260507071515 | 44 | 0.0 | 0.0 | 0.00 | 0.00 | 0.00 | 90 | 1016.5 | |
| 20260507070541 | 45 | 0.0 | 0.0 | 0.00 | 0.00 | 0.00 | 90 | 1016.4 | |
| 20260507065521 | 45 | 0.0 | 0.0 | 0.00 | 0.00 | 0.00 | 90 | 1016.2 | |
| 20260507064521 | 45 | 0.0 | 0.0 | 0.00 | 0.00 | 0.00 | 90 | 1016.3 | |
| 20260507063521 | 45 | 0.0 | 0.0 | 0.00 | 0.01 | 0.00 | 90 | 1016.3 | |
| 20260507062520 | 46 | 0.0 | 0.0 | 0.00 | 0.01 | 0.00 | 90 | 1016.4 | |
| 20260507061520 | 46 | 0.0 | 0.0 | 0.00 | 0.02 | 0.00 | 90 | 1016.4 | |
| 20260507060535 | 46 | 0.0 | 0.0 | 0.00 | 0.02 | 0.00 | 90 | 1016.4 | |
| 20260507055541 | 46 | 0.0 | 0.0 | 0.00 | 0.02 | 0.00 | 90 | 1016.5 | |
| 20260507054601 | 46 | 0.0 | 0.0 | 0.00 | 0.02 | 0.00 | 90 | 1016.5 | |
| 20260507053521 | 46 | 0.0 | 0.0 | 0.00 | 0.02 | 0.00 | 89 | 1016.6 | |
| 20260507052521 | 46 | 0.0 | 0.0 | 0.00 | 0.02 | 0.00 | 89 | 1016.5 | |
| 20260507051521 | 46 | 0.0 | 0.0 | 0.00 | 0.02 | 0.00 | 88 | 1016.5 | |
| 20260507050521 | 47 | 0.0 | 0.0 | 0.00 | 0.02 | 0.00 | 85 | 1016.4 | |
| 20260507045522 | 47 | 0.0 | 0.0 | 0.00 | 0.04 | 0.03 | 85 | 1016.4 | |
| 20260507044516 | 47 | 0.0 | 0.0 | 0.00 | 0.06 | 0.03 | 85 | 1016.1 | |
| 20260507043516 | 48 | 0.0 | 0.0 | 0.00 | 0.09 | 0.03 | 83 | 1016.2 | |
| 20260507042521 | 48 | 0.0 | 0.0 | 0.00 | 0.10 | 0.03 | 85 | 1016.2 | |
| 20260507041521 | 48 | 0.0 | 0.0 | 0.00 | 0.10 | 0.03 | 86 | 1016.2 | |
| 20260507040542 | 48 | 0.0 | 0.0 | 0.00 | 0.10 | 0.03 | 85 | 1016.1 | |
| 20260507035521 | 47 | 0.0 | 0.0 | 0.00 | 0.10 | 0.03 | 84 | 1016.0 | |
| 20260507034521 | 47 | 0.0 | 0.0 | 0.00 | 0.11 | 0.03 | 83 | 1016.1 | |
| 20260507033517 | 48 | 0.0 | 0.0 | 0.00 | 0.11 | 0.03 | 80 | 1016.3 | |
| 20260507032516 | 48 | 0.0 | 0.0 | 0.00 | 0.12 | 0.03 | 80 | 1016.4 | |
| 20260507031541 | 49 | 0.0 | 0.0 | 0.00 | 0.15 | 0.03 | 82 | 1016.3 | |
| 20260507030521 | 49 | 0.0 | 0.0 | 0.00 | 0.16 | 0.03 | 81 | 1015.8 | |
| 20260507025542 | 49 | 0.0 | 0.0 | 0.00 | 0.19 | 0.03 | 77 | 1015.8 | |
| 20260507024521 | 49 | 0.0 | 0.0 | 0.00 | 0.21 | 0.03 | 76 | 1016.1 | |
| 20260507023521 | 50 | 0.0 | 0.0 | 0.00 | 0.22 | 0.03 | 74 | 1016.2 | |
| 20260507022516 | 51 | 0.0 | 0.0 | 0.00 | 0.23 | 0.03 | 74 | 1016.1 | |
| 20260507021521 | 51 | 0.0 | 0.0 | 0.00 | 0.23 | 0.03 | 70 | 1015.9 | |
| 20260507020521 | 51 | 0.0 | 0.0 | 0.00 | 0.29 | 0.03 | 72 | 1015.9 | |
| 20260507015522 | 52 | 0.0 | 0.0 | 0.00 | 0.30 | 0.03 | 73 | 1015.8 | |
| 20260507014521 | 52 | 0.0 | 0.0 | 0.00 | 0.32 | 0.03 | 73 | 1015.5 | |
| 20260507013521 | 53 | 0.0 | 0.0 | 0.00 | 0.33 | 0.03 | 72 | 1015.5 | |
| 20260507012521 | 54 | 0.0 | 0.0 | 0.00 | 0.33 | 0.03 | 66 | 1015.5 | |
| 20260507011516 | 55 | 329 | 0.0 | 2.0 | 0.00 | 0.34 | 0.03 | 66 | 1015.5 |
| 20260507010521 | 56 | 329 | 0.0 | 2.0 | 0.00 | 0.37 | 0.03 | 65 | 1015.3 |
| 20260507005521 | 56 | 330 | 0.0 | 2.0 | 0.00 | 0.39 | 0.03 | 62 | 1015.1 |
| 20260507004601 | 57 | 0.0 | 0.0 | 0.00 | 0.46 | 0.03 | 61 | 1014.9 | |
| 20260507003521 | 58 | 330 | 0.0 | 2.0 | 0.00 | 0.46 | 0.03 | 61 | 1014.8 |
| 20260507002541 | 59 | 330 | 1.0 | 4.0 | 0.00 | 0.46 | 0.03 | 57 | 1014.8 |
| 20260507001516 | 59 | 329 | 1.0 | 4.0 | 0.00 | 0.46 | 0.03 | 57 | 1014.8 |
| 20260507000516 | 60 | 334 | 0.0 | 3.0 | 0.00 | 0.50 | 0.03 | 57 | 1014.7 |
| 20260506235521 | 60 | 334 | 2.0 | 5.0 | 0.00 | 0.50 | 0.03 | 56 | 1014.6 |
| 20260506234521 | 60 | 335 | 2.0 | 7.0 | 0.00 | 0.50 | 0.03 | 53 | 1014.4 |
| 20260506233521 | 61 | 334 | 2.0 | 6.0 | 0.00 | 0.50 | 0.03 | 51 | 1014.4 |
| 20260506232601 | 62 | 336 | 1.0 | 6.0 | 0.00 | 0.50 | 0.03 | 54 | 1014.3 |
| 20260506231522 | 61 | 350 | 2.0 | 5.0 | 0.00 | 0.50 | 0.03 | 56 | 1014.3 |
| 20260506230537 | 60 | 347 | 2.0 | 4.0 | 0.00 | 0.50 | 0.03 | 56 | 1014.4 |
| 20260506225541 | 61 | 345 | 3.0 | 8.0 | 0.00 | 0.50 | 0.03 | 55 | 1014.4 |
| 20260506224521 | 61 | 338 | 1.0 | 4.0 | 0.00 | 0.50 | 0.03 | 56 | 1014.5 |